This is the latest recevied weather packets stored in our database for station/object K7TUS-6. If no packets are shown the sender has not sent any weather packets the latest 10 day(s).
| Time | Temp. | Humidity | Pressure | Rain* | Wind** | Luminosity | Snow |
|---|---|---|---|---|---|---|---|
| 1777681206 | 15.56° C | 100% | 981.9 hPa | - | - | - | - |
| 1777680906 | 16.11° C | 100% | 981.3 hPa | - | - | - | - |
| 1777680605 | 14.44° C | 1% | 981.9 hPa | - | - | - | - |
| 1777680305 | 15.56° C | 1% | 980.6 hPa | - | - | - | - |
| 1777680004 | 15.56° C | 1% | 982.2 hPa | - | - | - | - |
| 1777679403 | 16.67° C | 1% | 982.9 hPa | - | - | - | - |
| 1777679109 | 16.67° C | 1% | 982 hPa | - | - | - | - |
| 1777678808 | 16.11° C | 1% | 981.4 hPa | - | - | - | - |
| 1777678508 | 16.67° C | 1% | 981.6 hPa | - | - | - | - |
| 1777677907 | 16.67° C | 100% | 981.8 hPa | - | - | - | - |
| 1777677606 | 15.56° C | 1% | 982.2 hPa | - | - | - | - |
| 1777677306 | 15.56° C | 1% | 982.4 hPa | - | - | - | - |
| 1777677005 | 16.11° C | 1% | 982.2 hPa | - | - | - | - |
| 1777676705 | 15.56° C | 100% | 981.6 hPa | - | - | - | - |
| 1777676404 | 16.11° C | 1% | 982 hPa | - | - | - | - |
| 1777676103 | 16.67° C | 1% | 981.5 hPa | - | - | - | - |
| 1777675803 | 15.56° C | 1% | 981.6 hPa | - | - | - | - |
| 1777675508 | 15° C | 1% | 981.3 hPa | - | - | - | - |
| 1777675208 | 15.56° C | 1% | 981 hPa | - | - | - | - |
| 1777674907 | 15.56° C | 1% | 980.3 hPa | - | - | - | - |
| 1777674607 | 16.67° C | 1% | 980.4 hPa | - | - | - | - |
| 1777674307 | 17.22° C | 1% | 981.2 hPa | - | - | - | - |
| 1777674006 | 17.22° C | 100% | 981.4 hPa | - | - | - | - |
| 1777673705 | 17.78° C | 100% | 982.1 hPa | - | - | - | - |
| 1777673404 | 17.78° C | 2% | 982.2 hPa | - | - | - | - |
* Rain since midnight (hover to see other rain measurements)
** Current wind speed in m/s (hover to see current wind gust speed)